Time,TemperatureF,DewpointF,PressureIn,WindDirection,WindDirectionDegrees,WindSpeedMPH,WindSpeedGustMPH,Humidity,HourlyPrecipIn,Conditions,Clouds,dailyrainin,SoftwareType,DateUTC
2013-04-21 00:04:00,57.1,47.0,30.00,North,0,0.0,0.0,69,0.00,,,0.00,WUHU216HW,2013-04-21 07:04:00,
2013-04-21 01:04:00,55.4,45.9,29.99,North,0,0.0,0.0,70,0.00,,,0.00,WUHU216HW,2013-04-21 08:04:00,
2013-04-21 02:04:00,54.2,45.0,29.97,North,0,0.0,0.0,71,0.00,,,0.00,WUHU216HW,2013-04-21 09:04:00,
2013-04-21 03:04:00,52.6,44.2,29.97,North,0,0.0,0.0,73,0.00,,,0.00,WUHU216HW,2013-04-21 10:04:00,
2013-04-21 04:04:00,51.3,44.0,29.96,North,0,0.0,0.0,76,0.00,,,0.00,WUHU216HW,2013-04-21 11:04:00,
2013-04-21 05:04:00,50.2,43.3,29.97,North,0,0.0,0.0,77,0.00,,,0.00,WUHU216HW,2013-04-21 12:04:00,
2013-04-21 06:04:00,49.3,42.7,29.97,North,0,0.0,0.0,78,0.00,,,0.00,WUHU216HW,2013-04-21 13:04:00,
2013-04-21 07:04:00,55.4,48.0,29.99,North,0,0.0,0.0,76,0.00,,,0.00,WUHU216HW,2013-04-21 14:04:00,
2013-04-21 08:04:00,68.8,51.0,30.01,South,180,1.8,1.8,53,0.00,,,0.00,WUHU216HW,2013-04-21 15:04:00,
2013-04-21 09:04:00,70.4,52.4,30.01,SSW,203,1.8,1.8,53,0.00,,,0.00,WUHU216HW,2013-04-21 16:04:00,
2013-04-21 10:04:00,74.9,51.4,30.02,SSW,203,1.8,1.8,44,0.00,,,0.00,WUHU216HW,2013-04-21 17:04:00,
2013-04-21 11:04:00,79.2,53.5,30.02,SW,225,2.0,2.0,41,0.00,,,0.00,WUHU216HW,2013-04-21 18:04:00,
2013-04-21 12:04:00,80.6,50.3,30.01,WNW,293,4.5,4.5,35,0.00,,,0.00,WUHU216HW,2013-04-21 19:04:00,
2013-04-21 13:04:00,83.2,48.5,29.98,West,270,1.8,1.8,30,0.00,,,0.00,WUHU216HW,2013-04-21 20:04:00,
2013-04-21 14:04:00,85.7,51.6,29.96,SW,225,2.7,2.7,31,0.00,,,0.00,WUHU216HW,2013-04-21 21:04:00,
2013-04-21 15:04:00,86.4,49.2,29.95,WNW,293,3.8,3.8,28,0.00,,,0.00,WUHU216HW,2013-04-21 22:04:00,
2013-04-21 16:04:00,87.7,48.2,29.92,North,0,1.1,1.1,26,0.00,,,0.00,WUHU216HW,2013-04-21 23:04:00,
2013-04-21 17:04:00,86.9,47.5,29.90,WSW,256,1.7,3.6,26,0.00,,,0.00,WUHU216HW,2013-04-22 00:04:00,
2013-04-21 17:09:00,87.5,49.1,29.90,WSW,258,2.5,4.7,27,0.00,,,0.00,WUHU216HW,2013-04-22 00:09:00,
2013-04-21 17:14:00,87.5,48.0,29.90,SW,235,1.4,2.9,26,0.00,,,0.00,WUHU216HW,2013-04-22 00:14:00,
2013-04-21 17:19:00,86.9,47.5,29.90,WSW,255,1.2,3.1,26,0.00,,,0.00,WUHU216HW,2013-04-22 00:19:00,
2013-04-21 17:24:00,86.4,47.1,29.90,WNW,289,1.7,4.7,26,0.00,,,0.00,WUHU216HW,2013-04-22 00:24:00,
2013-04-21 17:29:00,86.0,49.0,29.90,WSW,239,1.1,2.5,28,0.00,,,0.00,WUHU216HW,2013-04-22 00:29:00,
2013-04-21 17:34:00,86.0,47.9,29.90,South,176,1.8,3.6,27,0.00,,,0.00,WUHU216HW,2013-04-22 00:34:00,
2013-04-21 17:39:00,85.9,46.6,29.90,SSW,208,2.0,4.5,26,0.00,,,0.00,WUHU216HW,2013-04-22 00:39:00,
2013-04-21 17:44:00,86.2,47.0,29.90,WSW,238,2.3,4.9,26,0.00,,,0.00,WUHU216HW,2013-04-22 00:44:00,
2013-04-21 17:49:00,86.8,48.5,29.90,West,279,3.0,4.3,27,0.00,,,0.00,WUHU216HW,2013-04-22 00:49:00,
2013-04-21 17:54:00,86.8,47.4,29.90,WNW,290,1.3,2.7,26,0.00,,,0.00,WUHU216HW,2013-04-22 00:54:00,
2013-04-21 17:59:00,86.4,44.9,29.90,WNW,289,3.3,5.8,24,0.00,,,0.00,WUHU216HW,2013-04-22 00:59:00,
2013-04-21 18:04:00,85.9,46.6,29.90,WNW,285,3.1,3.8,26,0.00,,,0.00,WUHU216HW,2013-04-22 01:04:00,
2013-04-21 18:09:00,86.0,44.6,29.90,WNW,299,2.5,4.0,24,0.00,,,0.00,WUHU216HW,2013-04-22 01:09:00,
2013-04-21 18:14:00,85.1,44.9,29.90,NW,308,1.9,2.9,25,0.00,,,0.00,WUHU216HW,2013-04-22 01:14:00,
2013-04-21 18:20:00,85.0,44.8,29.90,WNW,297,2.4,4.0,25,0.00,,,0.00,WUHU216HW,2013-04-22 01:20:00,
2013-04-21 18:25:00,85.5,45.3,29.89,WNW,298,2.0,3.4,25,0.00,,,0.00,WUHU216HW,2013-04-22 01:25:00,
2013-04-21 18:30:00,85.9,45.5,29.90,WNW,287,2.6,3.8,25,0.00,,,0.00,WUHU216HW,2013-04-22 01:30:00,
2013-04-21 18:35:00,85.5,46.4,29.90,NW,315,1.9,2.9,26,0.00,,,0.00,WUHU216HW,2013-04-22 01:35:00,
2013-04-21 18:40:00,84.2,47.3,29.90,NW,317,2.1,3.6,28,0.00,,,0.00,WUHU216HW,2013-04-22 01:40:00,
2013-04-21 18:45:00,83.7,46.9,29.90,NW,315,2.2,4.7,28,0.00,,,0.00,WUHU216HW,2013-04-22 01:45:00,
2013-04-21 18:50:00,83.2,46.5,29.90,NW,315,2.1,3.4,28,0.00,,,0.00,WUHU216HW,2013-04-22 01:50:00,
2013-04-21 18:55:00,83.0,47.4,29.89,NW,317,2.1,2.7,29,0.00,,,0.00,WUHU216HW,2013-04-22 01:55:00,
2013-04-21 19:00:00,83.0,47.4,29.89,NW,314,1.9,3.1,29,0.00,,,0.00,WUHU216HW,2013-04-22 02:00:00,
2013-04-21 19:05:00,82.8,47.2,29.89,NW,312,1.2,2.2,29,0.00,,,0.00,WUHU216HW,2013-04-22 02:05:00,
2013-04-21 19:10:00,82.1,46.5,29.89,NW,320,1.1,2.0,29,0.00,,,0.00,WUHU216HW,2013-04-22 02:10:00,
2013-04-21 19:15:00,81.4,47.0,29.90,NNW,332,0.6,1.8,30,0.00,,,0.00,WUHU216HW,2013-04-22 02:15:00,
2013-04-21 19:20:00,80.8,46.6,29.90,NNW,338,0.5,1.1,30,0.00,,,0.00,WUHU216HW,2013-04-22 02:20:00,
2013-04-21 19:25:00,79.9,46.5,29.90,NNW,340,0.3,0.4,31,0.00,,,0.00,WUHU216HW,2013-04-22 02:25:00,
2013-04-21 19:30:00,79.6,47.0,29.90,NNW,347,0.3,0.4,32,0.00,,,0.00,WUHU216HW,2013-04-22 02:30:00,
2013-04-21 19:35:00,78.8,48.7,29.90,North,0,0.0,0.0,35,0.00,,,0.00,WUHU216HW,2013-04-22 02:35:00,
2013-04-21 19:40:00,77.9,49.4,29.90,North,0,0.0,0.0,37,0.00,,,0.00,WUHU216HW,2013-04-22 02:40:00,
2013-04-21 19:45:00,77.0,49.4,29.90,North,0,0.3,0.4,38,0.00,,,0.00,WUHU216HW,2013-04-22 02:45:00,
2013-04-21 19:50:00,76.5,48.2,29.90,North,0,0.0,0.0,37,0.00,,,0.00,WUHU216HW,2013-04-22 02:50:00,
2013-04-21 19:55:00,76.0,48.4,29.90,North,0,0.0,0.0,38,0.00,,,0.00,WUHU216HW,2013-04-22 02:55:00,
2013-04-21 20:00:00,75.1,48.4,29.90,North,0,0.0,0.0,39,0.00,,,0.00,WUHU216HW,2013-04-22 03:00:00,
2013-04-21 20:05:00,74.3,48.5,29.90,North,0,0.0,0.0,40,0.00,,,0.00,WUHU216HW,2013-04-22 03:05:00,
2013-04-21 20:10:00,73.6,48.4,29.90,North,0,0.0,0.0,41,0.00,,,0.00,WUHU216HW,2013-04-22 03:10:00,
2013-04-21 20:15:00,73.1,48.6,29.90,North,0,0.0,0.0,42,0.00,,,0.00,WUHU216HW,2013-04-22 03:15:00,
2013-04-21 20:20:00,72.5,48.7,29.90,North,0,0.0,0.0,43,0.00,,,0.00,WUHU216HW,2013-04-22 03:20:00,
2013-04-21 20:25:00,72.4,49.2,29.91,North,0,0.0,0.0,44,0.00,,,0.00,WUHU216HW,2013-04-22 03:25:00,
2013-04-21 20:30:00,72.2,49.5,29.91,North,0,0.0,0.0,45,0.00,,,0.00,WUHU216HW,2013-04-22 03:30:00,
2013-04-21 20:35:00,71.8,49.8,29.91,North,0,0.0,0.0,46,0.00,,,0.00,WUHU216HW,2013-04-22 03:35:00,
2013-04-21 20:40:00,71.6,50.2,29.91,North,0,0.0,0.0,47,0.00,,,0.00,WUHU216HW,2013-04-22 03:40:00,
2013-04-21 20:45:00,70.9,50.2,29.92,North,0,0.0,0.0,48,0.00,,,0.00,WUHU216HW,2013-04-22 03:45:00,
2013-04-21 20:50:00,69.8,49.8,29.92,North,0,0.0,0.0,49,0.00,,,0.00,WUHU216HW,2013-04-22 03:50:00,
2013-04-21 20:55:00,69.1,49.8,29.91,North,0,0.0,0.0,50,0.00,,,0.00,WUHU216HW,2013-04-22 03:55:00,
2013-04-21 21:00:00,68.8,50.0,29.92,North,0,0.0,0.0,51,0.00,,,0.00,WUHU216HW,2013-04-22 04:00:00,
2013-04-21 21:05:00,68.4,50.0,29.92,West,270,0.8,0.9,52,0.00,,,0.00,WUHU216HW,2013-04-22 04:05:00,
2013-04-21 21:10:00,68.2,49.4,29.92,North,0,0.0,0.0,51,0.00,,,0.00,WUHU216HW,2013-04-22 04:10:00,
2013-04-21 21:15:00,67.5,49.2,29.92,NNE,33,0.5,0.7,52,0.00,,,0.00,WUHU216HW,2013-04-22 04:15:00,
2013-04-21 21:20:00,67.1,49.0,29.92,North,0,0.0,0.0,52,0.00,,,0.00,WUHU216HW,2013-04-22 04:20:00,
2013-04-21 21:25:00,66.8,49.2,29.93,North,0,0.0,0.0,53,0.00,,,0.00,WUHU216HW,2013-04-22 04:25:00,
2013-04-21 21:30:00,66.4,48.8,29.93,North,0,0.0,0.0,53,0.00,,,0.00,WUHU216HW,2013-04-22 04:30:00,
2013-04-21 21:35:00,65.9,48.2,29.93,North,0,0.0,0.0,53,0.00,,,0.00,WUHU216HW,2013-04-22 04:35:00,
2013-04-21 21:40:00,65.7,48.6,29.94,NW,315,0.6,1.1,54,0.00,,,0.00,WUHU216HW,2013-04-22 04:40:00,
2013-04-21 21:45:00,65.2,49.0,29.94,SE,135,0.8,1.1,56,0.00,,,0.00,WUHU216HW,2013-04-22 04:45:00,
2013-04-21 21:50:00,64.6,48.0,29.94,North,0,0.6,0.9,55,0.00,,,0.00,WUHU216HW,2013-04-22 04:50:00,
2013-04-21 21:55:00,64.4,47.8,29.94,North,0,0.0,0.0,55,0.00,,,0.00,WUHU216HW,2013-04-22 04:55:00,
2013-04-21 22:00:00,64.4,47.8,29.94,North,0,0.0,0.0,55,0.00,,,0.00,WUHU216HW,2013-04-22 05:00:00,
2013-04-21 22:05:00,64.4,47.8,29.94,North,0,0.0,0.0,55,0.00,,,0.00,WUHU216HW,2013-04-22 05:05:00,
2013-04-21 22:10:00,64.1,47.4,29.94,North,0,0.0,0.0,55,0.00,,,0.00,WUHU216HW,2013-04-22 05:10:00,
2013-04-21 22:15:00,63.9,47.4,29.95,North,0,0.0,0.0,55,0.00,,,0.00,WUHU216HW,2013-04-22 05:15:00,
2013-04-21 22:20:00,63.9,47.4,29.94,North,0,0.0,0.0,55,0.00,,,0.00,WUHU216HW,2013-04-22 05:20:00,
2013-04-21 22:25:00,63.7,47.6,29.94,North,0,0.0,0.0,56,0.00,,,0.00,WUHU216HW,2013-04-22 05:25:00,
2013-04-21 22:30:00,63.2,48.2,29.94,North,0,0.0,0.0,58,0.00,,,0.00,WUHU216HW,2013-04-22 05:30:00,
2013-04-21 22:35:00,62.6,48.2,29.95,North,0,0.0,0.0,59,0.00,,,0.00,WUHU216HW,2013-04-22 05:35:00,
2013-04-21 22:40:00,62.3,49.2,29.94,North,0,0.2,0.2,62,0.00,,,0.00,WUHU216HW,2013-04-22 05:40:00,
2013-04-21 22:45:00,61.9,48.3,29.95,ENE,68,0.2,0.2,61,0.00,,,0.00,WUHU216HW,2013-04-22 05:45:00,
2013-04-21 22:50:00,61.7,47.8,29.94,North,0,0.0,0.0,60,0.00,,,0.00,WUHU216HW,2013-04-22 05:50:00,
2013-04-21 22:55:00,61.6,47.6,29.95,North,0,0.0,0.0,60,0.00,,,0.00,WUHU216HW,2013-04-22 05:55:00,
2013-04-21 23:00:00,61.6,47.6,29.95,North,0,0.0,0.0,60,0.00,,,0.00,WUHU216HW,2013-04-22 06:00:00,
2013-04-21 23:05:00,61.4,47.4,29.95,North,0,0.0,0.0,60,0.00,,,0.00,WUHU216HW,2013-04-22 06:05:00,
2013-04-21 23:10:00,61.2,47.7,29.95,North,0,0.0,0.0,61,0.00,,,0.00,WUHU216HW,2013-04-22 06:10:00,
2013-04-21 23:15:00,60.8,47.4,29.95,ENE,68,0.2,0.2,61,0.00,,,0.00,WUHU216HW,2013-04-22 06:15:00,
2013-04-21 23:20:00,60.8,47.4,29.95,North,0,0.0,0.0,61,0.00,,,0.00,WUHU216HW,2013-04-22 06:20:00,
2013-04-21 23:25:00,61.0,47.5,29.95,North,0,0.0,0.0,61,0.00,,,0.00,WUHU216HW,2013-04-22 06:25:00,
2013-04-21 23:30:00,60.8,47.8,29.95,NE,44,0.7,1.8,62,0.00,,,0.00,WUHU216HW,2013-04-22 06:30:00,
2013-04-21 23:35:00,61.0,47.2,29.95,NNW,338,0.4,0.4,60,0.00,,,0.00,WUHU216HW,2013-04-22 06:35:00,
2013-04-21 23:40:00,61.0,47.2,29.95,SSE,158,0.3,0.4,60,0.00,,,0.00,WUHU216HW,2013-04-22 06:40:00,
2013-04-21 23:45:00,60.8,47.0,29.95,North,0,0.0,0.0,60,0.00,,,0.00,WUHU216HW,2013-04-22 06:45:00,
2013-04-21 23:50:00,60.3,47.7,29.95,East,90,0.4,0.4,63,0.00,,,0.00,WUHU216HW,2013-04-22 06:50:00,
2013-04-21 23:55:00,59.9,46.9,29.95,East,90,0.4,0.4,62,0.00,,,0.00,WUHU216HW,2013-04-22 06:55:00,